EHI
6 6 6 4 1 0 0 0 0 0 0 0 0 0 0 0 0 0 0 0 0 0 0 0 0 0 0 0 0 0 0 0 0 0 0 0 0 0 0 0 0 0 0
7 6 5 3 1 0 0 0 0 0 0 0 0 0 0 0 0 0 0 0 0 0 0 0 0 0 0 0 0 0 0 0 0 0 0 0 0 0 0 0 0 0 0
7 5 4 2 1 0 0 0 0 0 0 0 0 0 0 0 0 0 0 0 0 0 0 0 0 0 0 0 0 0 0 0 0 0 0 0 0 0 0 0 0 0 0
4 2 1 1 0 0 0 0 0 0 0 0 0 0 0 0 0 0 0 0 0 0 0 0 0 0 0 0 0 0 0 0 0 0 0 0 0 0 0 0 0 0 0
1 0 0 0 0 0 0 0 0 0 0 0 0 0 0 0 0 0 0 0 0 0 0 0 0 0 0 0 0 0 0 0 0 0 0 0 0 0 0 0 0 0 0
1 0 0 0 0 0 0 0 0 0 0 0 0 0 0 0 0 0 0 0 0 0 0 0 0 0 0 0 0 0 0 0 0 0 0 0 0 0 0 0 0 0 0
6 3 0 0 0 0 0 0 0 0 0 0 0 0 0 0 0 0 0 0 0 0 0 0 0 0 0 0 0 0 0 0 0 0 0 0 0 0 0 0 0 0 0
11 5 1 0 0 0 0 0 0 0 0 0 0 0 0 0 0 0 0 0 0 0 0 0 0 0 0 0 0 0 0 0 0 0 0 0 0 0 0 0 0 0 0
11 6 1 0 0 0 0 0 0 0 0 0 0 0 0 0 0 0 0 0 0 0 0 0 0 0 0 0 0 0 0 0 0 0 0 0 0 0 0 0 0 0 0
11 6 1 0 0 0 0 0 0 0 0 0 0 0 0 0 0 0 0 0 0 0 0 0 0 0 0 0 0 0 0 0 0 0 0 0 0 0 0 0 0 0 0
21 11 3 1 1 0 0 0 0 0 0 0 0 0 0 0 0 0 0 0 0 0 0 0 0 0 0 0 0 0 0 0 0 0 0 0 0 0 0 0 0 0 0
34 22 10 5 4 1 1 0 0 0 0 0 0 0 0 0 0 0 0 0 0 0 0 0 0 0 0 0 0 0 0 0 0 0 0 0 0 0 0 0 0 0 0
36 29 19 13 9 5 2 1 0 0 0 0 0 0 0 0 0 0 0 0 0 0 0 0 0 0 0 0 0 0 0 0 0 0 0 0 0 0 0 0 0 0 0
28 28 25 19 16 11 5 1 0 0 0 0 0 0 0 0 0 0 0 0 0 0 0 0 0 0 0 0 0 0 0 0 0 0 0 0 0 0 0 0 0 0 0
21 24 25 23 20 14 6 1 0 0 0 0 0 0 0 0 0 0 0 0 0 0 0 0 0 0 0 0 0 0 0 0 0 0 0 0 0 0 0 0 0 0 0
19 21 23 23 19 14 7 3 1 1 0 0 0 0 0 0 0 0 0 0 0 0 0 0 0 0 0 0 0 0 0 0 0 0 0 0 0 0 0 0 0 0 0
15 17 19 18 16 13 9 6 4 3 1 0 0 0 0 0 0 0 0 0 0 0 0 0 0 0 0 0 0 0 0 0 0 0 0 0 0 0 0 0 0 0 0
8 12 16 17 16 15 13 11 8 4 1 0 0 0 0 0 0 0 0 0 0 0 0 0 0 0 0 0 0 0 0 0 0 0 0 0 0 0 0 0 0 0 0
3 8 16 20 19 17 15 12 9 4 1 1 1 0 0 0 0 0 0 0 0 0 0 0 0 0 0 0 0 0 0 0 0 0 0 0 0 0 0 0 0 0 0
5 7 13 18 19 18 16 13 10 5 3 2 1 0 0 0 0 0 0 0 0 0 0 0 0 0 0 0 0 0 0 0 0 0 0 0 0 0 0 0 0 0 0
8 8 9 13 17 17 16 15 13 9 6 3 2 0 0 0 0 0 0 0 0 0 0 0 0 0 0 0 0 0 0 0 0 0 0 0 0 0 0 0 0 0 0
9 9 9 12 16 18 16 14 12 10 7 4 2 0 0 0 0 0 0 0 0 0 0 0 0 0 0 0 0 0 0 0 0 0 0 0 0 0 0 0 0 0 0
7 9 11 14 17 18 16 13 9 6 4 3 1 0 0 0 0 0 0 0 0 0 0 0 0 0 0 0 0 0 0 0 0 0 0 0 0 0 0 0 0 0 0
3 6 10 13 16 17 17 12 7 4 2 1 0 0 0 0 0 0 0 0 0 0 0 0 0 0 0 0 0 0 0 0 0 0 0 0 0 0 0 0 0 0 0
1 3 5 9 12 15 15 11 8 5 2 1 0 0 0 0 0 0 0 0 0 0 0 0 0 0 0 0 0 0 0 0 0 0 0 0 0 0 0 0 0 0 0
0 1 3 6 9 11 11 10 9 6 2 1 1 0 0 0 0 0 0 0 0 0 0 0 0 0 0 0 0 0 0 0 0 0 0 0 0 0 0 0 0 0 0
Wind_Speed
12 14 16 16 16 15 15 14 13 12 12 12 13 13 13 13 13 13 14 14 15 16 17 17 17 17 17 17 16 16 15 14 14 15 15 15 15 16 17 17 14 10 16
16 16 16 16 16 15 15 14 13 12 12 12 13 13 13 14 14 14 14 15 16 17 17 17 16 16 16 16 15 14 12 10 10 9 9 11 12 15 16 16 15 10 15
18 17 15 15 15 15 15 14 13 12 12 12 13 13 13 14 14 15 15 16 16 17 17 16 16 15 15 14 13 11 9 7 6 4 4 6 9 15 15 15 15 15 15
18 15 15 15 16 16 15 14 13 12 12 12 13 13 13 14 14 15 15 16 16 16 16 15 14 14 13 12 11 10 7 7 8 6 6 7 7 13 14 14 14 14 14
16 14 16 16 16 16 15 13 12 12 12 12 12 13 13 14 14 15 15 15 15 15 14 14 13 13 12 11 10 8 7 9 9 7 7 7 6 11 13 13 13 13 13
15 15 15 15 16 15 14 13 12 12 12 12 12 13 13 13 14 14 13 13 13 13 12 12 12 12 11 10 9 7 7 10 6 6 7 7 5 10 12 12 11 12 12
15 15 15 16 16 15 14 12 12 12 12 12 12 13 13 13 13 13 12 12 11 11 11 11 11 10 10 9 7 6 8 10 3 5 6 6 6 10 10 11 11 11 11
14 15 14 15 15 14 13 12 11 11 11 11 12 13 13 13 13 12 11 10 10 10 10 10 9 9 8 7 6 5 7 8 4 6 6 5 7 9 9 9 9 9 9
14 14 12 11 12 12 12 11 10 10 10 10 11 12 12 11 11 11 10 9 9 9 8 8 8 7 6 5 4 4 6 8 5 2 6 4 6 7 7 7 7 7 7
11 12 12 11 10 9 8 10 10 10 10 10 11 11 11 10 10 10 9 8 8 7 7 6 6 5 4 3 1 3 6 7 3 2 3 4 5 5 4 4 4 4 5
9 10 10 10 10 10 9 10 9 9 9 10 9 10 9 6 6 6 8 8 7 6 6 5 4 3 3 3 3 4 5 3 1 2 3 6 4 2 1 1 1 2 3
8 9 8 9 9 9 9 8 6 6 6 6 7 7 5 5 5 7 10 8 7 6 5 5 5 5 4 3 5 5 3 4 1 1 4 8 4 1 1 2 2 1 1
8 7 8 8 7 7 6 6 5 4 5 6 8 8 5 4 5 5 4 4 4 5 4 5 5 4 5 3 3 4 3 1 1 0 4 8 5 4 4 4 4 4 3
8 7 7 7 7 6 5 4 4 4 4 3 5 6 4 3 3 4 3 5 4 4 4 4 4 5 4 4 4 4 3 2 2 1 4 9 7 6 6 6 6 6 5
7 8 7 6 7 6 5 3 3 4 4 4 3 3 3 3 3 3 2 3 3 3 3 3 3 3 3 3 3 3 3 4 4 3 3 9 9 8 8 8 8 8 7
7 7 7 7 7 6 5 4 3 3 3 4 4 3 3 3 3 3 2 2 2 2 2 3 3 2 2 2 2 3 4 4 3 3 2 6 10 10 9 9 9 9 8
6 7 8 8 7 7 6 6 4 3 4 4 4 4 4 3 3 2 2 2 2 2 2 2 2 1 1 1 3 4 4 4 3 4 3 3 4 9 10 10 9 8 8
6 6 7 7 7 7 6 5 3 3 3 3 3 3 5 4 4 3 2 2 2 2 1 1 1 1 2 2 3 3 3 3 4 4 3 2 2 3 6 9 8 8 7
5 5 6 6 6 6 6 4 4 3 3 3 3 3 3 3 4 3 2 2 2 1 1 1 2 2 2 3 3 3 3 3 4 3 3 3 2 2 2 4 6 5 5
5 4 5 6 6 6 5 4 3 3 2 2 3 2 2 2 2 2 2 2 2 1 2 2 3 3 2 2 3 3 4 4 4 4 3 2 1 1 2 2 1 2 3
5 5 5 6 6 5 4 4 4 3 3 2 2 3 2 1 2 2 1 2 1 1 2 3 2 2 2 1 2 3 4 6 6 4 2 1 1 2 3 3 2 2 1
7 6 6 6 5 5 4 4 3 3 3 3 3 3 2 2 1 1 1 1 1 1 2 2 2 2 2 2 2 2 3 3 2 2 1 2 2 2 3 4 4 4 3
6 6 6 6 5 5 5 3 3 3 2 2 3 2 2 2 2 2 1 1 0 0 1 2 1 2 2 2 3 3 2 3 2 2 1 2 2 3 3 4 6 6 6
5 5 5 5 5 5 5 5 5 4 4 4 3 3 3 3 2 1 1 0 1 1 1 1 1 1 2 3 2 3 3 2 1 2 1 1 3 4 4 4 5 6 6
6 5 4 4 5 4 5 5 5 4 3 3 3 4 4 3 3 2 1 0 0 0 1 1 1 2 2 2 2 2 2 2 3 3 3 1 1 2 3 4 4 5 6
6 5 4 5 4 4 4 4 4 4 4 4 4 3 3 2 2 3 2 1 1 1 1 1 1 2 2 2 2 1 1 1 2 2 3 2 1 1 3 4 4 4 4
Wind_Direction
128 135 138 135 132 128 121 115 109 106 102 97 92 87 82 80 82 84 88 91 91 90 88 85 83 82 81 80 78 76 75 77 78 76 70 63 61 59 56 55 59 52 55
131 136 139 137 134 129 121 115 112 109 105 101 97 91 85 83 84 85 88 91 91 88 86 85 83 82 81 80 79 78 77 77 78 81 79 70 62 62 60 58 57 54 53
129 135 139 136 133 128 122 118 116 113 110 107 101 95 89 86 85 87 88 88 89 87 86 85 84 83 82 81 79 77 71 57 40 23 78 88 67 62 61 58 56 54 51
130 139 140 136 134 129 125 123 121 119 117 113 106 100 94 91 88 89 90 90 90 88 87 85 84 83 83 81 78 72 55 26 6 22 72 72 63 62 58 56 55 53 51
132 137 133 138 134 131 128 126 126 124 121 117 110 105 99 97 93 91 92 92 92 90 88 87 85 84 83 80 74 63 35 8 359 56 77 74 63 62 59 55 53 52 51
131 126 134 136 134 131 130 130 130 127 123 120 116 110 105 101 98 97 97 97 96 94 92 89 87 85 82 78 70 50 20 0 6 71 72 73 63 61 59 56 54 53 52
127 128 138 136 135 134 134 133 132 130 126 123 122 116 110 108 106 105 104 103 102 100 96 92 90 86 82 76 64 36 6 346 34 79 80 73 64 64 61 57 54 53 52
125 131 138 137 137 136 136 135 133 131 131 127 126 121 116 115 115 114 112 111 108 104 99 95 91 88 83 75 59 25 358 348 13 83 92 85 73 67 63 59 55 53 51
127 133 139 141 138 136 135 135 132 128 128 126 125 122 118 120 123 122 120 117 113 108 103 99 95 91 86 77 55 7 341 336 333 78 101 97 86 73 65 61 57 54 52
132 139 145 149 147 144 137 133 129 126 126 126 123 124 127 130 134 134 131 122 121 118 115 110 105 102 99 99 51 318 315 319 284 108 103 112 99 80 65 57 53 53 51
140 145 151 154 154 152 147 140 133 131 131 131 133 142 146 157 155 151 133 133 134 135 136 136 138 152 167 192 218 253 290 275 279 98 111 128 120 99 63 36 31 35 42
153 154 154 155 155 151 145 149 154 155 154 168 159 169 191 182 143 133 138 145 151 158 162 174 189 206 218 214 220 236 257 261 257 163 147 149 152 185 256 257 264 278 300
160 156 153 151 151 146 146 164 162 160 169 191 169 184 190 140 127 132 153 153 171 182 190 194 208 226 226 200 187 218 235 296 306 240 157 163 176 215 249 259 253 250 252
162 160 155 149 148 149 153 161 157 156 171 172 165 180 163 143 153 163 169 175 184 192 192 185 216 219 216 211 216 236 232 219 238 210 171 178 190 217 241 254 259 254 251
166 165 161 152 151 152 152 160 166 159 163 156 153 174 153 146 171 165 177 174 196 188 172 200 231 235 222 236 238 247 264 252 241 222 183 192 198 213 233 246 255 258 256
174 169 162 163 159 155 156 167 180 167 158 149 148 172 163 162 171 158 193 178 207 189 191 205 230 238 239 246 262 266 260 264 257 252 218 200 207 214 227 241 251 258 261
176 175 170 171 169 167 170 180 182 169 157 154 156 173 172 176 162 161 206 188 207 205 210 220 265 288 299 293 277 269 263 262 269 267 252 212 200 213 222 236 247 256 262
174 178 175 172 172 172 173 177 168 166 161 155 157 169 178 178 166 172 199 207 219 202 185 203 254 286 273 267 268 273 273 269 264 266 268 247 205 192 211 223 239 252 263
175 173 168 165 170 171 169 167 169 170 163 153 153 159 171 175 174 173 193 214 215 192 192 212 220 226 252 264 272 280 287 286 274 270 266 264 234 183 170 196 216 235 261
174 176 172 170 173 170 166 168 168 168 159 142 138 146 158 170 173 171 191 223 215 194 212 217 230 237 239 253 280 282 273 266 260 253 250 249 237 158 121 97 148 227 245
176 181 178 176 175 167 162 167 171 175 170 155 145 147 154 165 174 172 190 221 215 206 223 230 231 242 245 245 281 287 272 253 244 236 216 184 106 90 89 77 73 61 31
178 180 178 176 172 167 164 164 158 152 153 154 152 142 134 123 104 142 172 212 207 221 246 251 246 236 237 209 210 270 302 309 288 227 153 123 98 75 74 70 63 53 50
178 178 171 167 165 160 153 137 124 115 117 142 158 149 128 112 92 67 49 28 327 211 237 251 251 229 243 249 215 210 235 263 325 344 56 83 77 69 65 63 63 53 49
169 154 155 155 156 155 154 155 160 165 169 176 162 151 140 133 125 115 99 359 301 272 246 255 260 243 236 249 257 233 223 217 241 296 339 42 64 63 60 62 59 54 46
144 139 145 146 151 154 159 163 166 167 157 139 133 142 147 144 139 128 104 78 338 355 355 326 304 279 249 244 243 247 252 251 225 223 251 257 51 55 59 63 60 52 46
131 135 145 151 152 151 153 152 154 151 139 134 135 143 137 129 123 105 83 58 40 44 24 339 302 290 278 267 265 251 231 230 227 221 235 227 183 99 67 58 58 54 48